カタログに戻る

SL-12 DEB

LostHEO
NORAD 29326·DEBRIS·🇷🇺 Russia

打ち上げ May 31, 1989 から Baikonur Cosmodrome

Loading…

次のパス (今後24時間)

TLE

古いSource: Space-Track

元期: Jan 16, 2007, 19:12 UTC

1 29326U 89039AH  07016.80009701  .03296854  00000-0  20806+0 0  9992
2 29326 064.9882 203.1841 4886485 061.5622 339.0960 05.87858409  1077

AllMySatでSL-12 DEBをリアルタイム追跡

Download on the App Store